Fort Patrick Henry Observed Data For Previous 48 Hours

Caption
Day and Hour Reservoir Elevation (behind dam)* Tailwater Elevation (below dam)* Average Hourly Discharge*
7/14/2018 2 AM EDT 1,260.65 1,191.41 301
7/14/2018 3 AM EDT 1,260.53 1,188.00 2,502
7/14/2018 4 AM EDT 1,260.85 1,186.71 0
7/14/2018 5 AM EDT 1,261.02 1,191.46 320
7/14/2018 6 AM EDT 1,261.16 1,188.08 2,519
7/14/2018 7 AM EDT 1,261.41 1,186.72 0
7/14/2018 8 AM EDT 1,261.26 1,191.45 301
7/14/2018 9 AM EDT 1,261.11 1,188.00 2,518
7/14/2018 10 AM EDT 1,261.17 1,186.71 0
7/14/2018 11 AM EDT 1,261.07 1,191.45 317
7/14/2018 12 PM EDT 1,260.98 1,188.09 2,530
7/14/2018 1 PM EDT 1,260.91 1,186.71 0
7/14/2018 2 PM EDT 1,260.78 1,191.44 306
7/14/2018 3 PM EDT 1,260.88 1,192.83 3,536
7/14/2018 4 PM EDT 1,260.84 1,192.80 3,539
7/14/2018 5 PM EDT 1,260.81 1,192.83 3,520
7/14/2018 6 PM EDT 1,260.77 1,192.81 3,524
7/14/2018 7 PM EDT 1,260.75 1,192.84 3,533
7/14/2018 8 PM EDT 1,261.10 1,186.92 91
7/14/2018 9 PM EDT 1,261.01 1,191.57 319
7/14/2018 10 PM EDT 1,260.90 1,188.06 2,496
7/14/2018 11 PM EDT 1,260.96 1,186.78 0
7/15/2018 12 AM EDT 1,260.84 1,191.41 306
7/15/2018 1 AM EDT 1,260.77 1,188.11 2,496
7/15/2018 2 AM EDT 1,260.71 1,186.73 0
7/15/2018 3 AM EDT 1,260.58 1,191.39 292
7/15/2018 4 AM EDT 1,260.47 1,188.01 2,496
7/15/2018 5 AM EDT 1,260.43 1,186.71 0
7/15/2018 6 AM EDT 1,260.66 1,191.46 305
7/15/2018 7 AM EDT 1,260.82 1,188.01 2,501
7/15/2018 8 AM EDT 1,261.12 1,186.72 0
7/15/2018 9 AM EDT 1,260.94 1,191.50 324
7/15/2018 10 AM EDT 1,260.83 1,188.08 2,520
7/15/2018 11 AM EDT 1,260.84 1,186.72 0
7/15/2018 12 PM EDT 1,260.71 1,191.43 307
7/15/2018 1 PM EDT 1,260.65 1,188.08 2,532
7/15/2018 2 PM EDT 1,260.58 1,186.72 0
7/15/2018 3 PM EDT 1,260.79 1,191.37 294
7/15/2018 4 PM EDT 1,260.82 1,192.81 3,414
7/15/2018 5 PM EDT 1,260.77 1,192.82 3,506
7/15/2018 6 PM EDT 1,260.76 1,192.81 3,503
7/15/2018 7 PM EDT 1,260.73 1,192.87 3,526
7/15/2018 8 PM EDT 1,261.08 1,186.92 86
7/15/2018 9 PM EDT 1,260.96 1,191.50 325
7/15/2018 10 PM EDT 1,260.86 1,188.10 2,534
7/15/2018 11 PM EDT 1,260.89 1,186.72 0
7/16/2018 12 AM EDT 1,260.81 1,191.46 315
7/16/2018 1 AM EDT 1,260.72 1,188.03 2,531
7/16/2018 2 AM EDT 1,260.70 1,186.76 0

Elevations are in feet above sea level. Discharges are in cubic feet per second and are reported at the end of the hour.